• In Netherlands
  • List of Countries
  • For 7 days
  • Water Temperature
  • Satellite Maps
  • Weather Map
  • Weather Widgets
  • user-avatar
    Login

    Hourly Weather Sylhet

    Today, 21 February, Wednesday

    Time Temperature Precipitation Wind Pressure Humidity
    00:00 +21°C° 0 mm 1 mps 758 mmHg 51%
    01:00 +20°C° 0 mm 1 mps 758 mmHg 53%
    02:00 +20°C° 0 mm 1 mps 757 mmHg 54%
    03:00 +19°C° 0 mm 1 mps 757 mmHg 56%
    04:00 +19°C° 0 mm 1 mps 757 mmHg 57%
    05:00 +18°C° 0 mm 1 mps 758 mmHg 58%
    06:00 +18°C° 0 mm 1 mps 758 mmHg 60%
    07:00 +19°C° 0 mm 2 mps 758 mmHg 55%
    08:00 +23°C° 0 mm 2 mps 758 mmHg 51%
    09:00 +25°C° 0 mm 2 mps 758 mmHg 47%
    10:00 +27°C° 0 mm 2 mps 758 mmHg 41%
    11:00 +29°C° 0 mm 2 mps 758 mmHg 36%
    12:00 +31°C° 0 mm 2 mps 757 mmHg 30%
    13:00 +31°C° 0 mm 2 mps 757 mmHg 29%
    14:00 +32°C° 0 mm 2 mps 756 mmHg 27%
    15:00 +32°C° 0 mm 2 mps 755 mmHg 25%
    16:00 +30°C° 0 mm 2 mps 755 mmHg 29%
    17:00 +28°C° 0 mm 1 mps 755 mmHg 34%
    18:00 +26°C° 0 mm 1 mps 755 mmHg 38%
    19:00 +25°C° 0 mm 1 mps 756 mmHg 40%
    20:00 +24°C° 0 mm 1 mps 756 mmHg 42%
    21:00 +23°C° 0 mm 1 mps 757 mmHg 44%
    22:00 +22°C° 0 mm 1 mps 757 mmHg 45%
    23:00 +21°C° 0 mm 2 mps 757 mmHg 46%

    Tomorrow, 22 February, Thursday

    Time Temperature Precipitation Wind Pressure Humidity
    00:00 +20°C° 0 mm 2 mps 757 mmHg 48%
    01:00 +20°C° 0 mm 2 mps 757 mmHg 50%
    02:00 +19°C° 0 mm 2 mps 757 mmHg 51%
    03:00 +19°C° 0 mm 2 mps 756 mmHg 53%
    04:00 +18°C° 0 mm 2 mps 756 mmHg 55%
    05:00 +19°C° 0 mm 1 mps 756 mmHg 56%
    06:00 +18°C° 0 mm 1 mps 756 mmHg 58%
    07:00 +20°C° 0 mm 2 mps 757 mmHg 53%
    08:00 +23°C° 0 mm 2 mps 757 mmHg 48%
    09:00 +25°C° 0 mm 2 mps 758 mmHg 44%
    10:00 +28°C° 0 mm 2 mps 758 mmHg 39%
    11:00 +30°C° 0 mm 2 mps 757 mmHg 34%
    12:00 +32°C° 0 mm 1 mps 757 mmHg 29%
    13:00 +32°C° 0 mm 1 mps 756 mmHg 28%
    14:00 +33°C° 0 mm 1 mps 755 mmHg 27%
    15:00 +33°C° 0 mm 1 mps 754 mmHg 25%
    16:00 +31°C° 0 mm 1 mps 754 mmHg 29%
    17:00 +29°C° 0 mm 1 mps 755 mmHg 34%
    18:00 +27°C° 0 mm 2 mps 755 mmHg 38%
    19:00 +26°C° 0 mm 2 mps 755 mmHg 40%
    20:00 +24°C° 0 mm 2 mps 756 mmHg 42%
    21:00 +23°C° 0 mm 2 mps 757 mmHg 44%
    22:00 +23°C° 0 mm 2 mps 757 mmHg 46%
    23:00 +22°C° 0 mm 1 mps 757 mmHg 48%

    Day after tomorrow, 23 February, Friday

    Time Temperature Precipitation Wind Pressure Humidity
    00:00 +21°C° 0 mm 1 mps 757 mmHg 50%
    01:00 +21°C° 0 mm 1 mps 757 mmHg 52%
    02:00 +21°C° 0 mm 1 mps 757 mmHg 53%
    03:00 +19°C° 0 mm 2 mps 756 mmHg 55%
    04:00 +19°C° 0 mm 2 mps 756 mmHg 57%
    05:00 +18°C° 0 mm 2 mps 757 mmHg 59%
    06:00 +18°C° 0 mm 2 mps 757 mmHg 61%
    07:00 +20°C° 0 mm 2 mps 757 mmHg 56%
    08:00 +23°C° 0 mm 2 mps 758 mmHg 51%
    09:00 +25°C° 0 mm 2 mps 759 mmHg 46%
    10:00 +28°C° 0 mm 1 mps 758 mmHg 41%
    11:00 +30°C° 0 mm 1 mps 758 mmHg 36%
    12:00 +32°C° 0 mm 1 mps 757 mmHg 31%
    13:00 +32°C° 0 mm 2 mps 757 mmHg 29%
    14:00 +34°C° 0 mm 2 mps 756 mmHg 27%
    15:00 +34°C° 0 mm 3 mps 755 mmHg 24%
    16:00 +31°C° 0 mm 3 mps 756 mmHg 29%
    17:00 +29°C° 0 mm 2 mps 756 mmHg 33%
    18:00 +26°C° 0 mm 1 mps 756 mmHg 38%
    19:00 +25°C° 0 mm 2 mps 757 mmHg 40%
    20:00 +24°C° 0 mm 2 mps 757 mmHg 42%
    21:00 +23°C° 0 mm 2 mps 758 mmHg 44%
    22:00 +23°C° 0 mm 2 mps 758 mmHg 45%
    23:00 +21°C° 0 mm 2 mps 758 mmHg 47%

    24 February, Saturday

    Time Temperature Precipitation Wind Pressure Humidity
    00:00 +20°C° 0 mm 2 mps 758 mmHg 49%
    01:00 +20°C° 0 mm 2 mps 758 mmHg 50%
    02:00 +20°C° 0 mm 1 mps 758 mmHg 52%
    03:00 +20°C° 0 mm 1 mps 758 mmHg 53%
    04:00 +20°C° 0 mm 1 mps 758 mmHg 54%
    05:00 +18°C° 0 mm 2 mps 758 mmHg 55%
    06:00 +18°C° 0 mm 2 mps 759 mmHg 56%
    07:00 +20°C° 0 mm 2 mps 759 mmHg 52%
    08:00 +23°C° 0 mm 2 mps 760 mmHg 48%
    09:00 +26°C° 0 mm 2 mps 761 mmHg 43%
    10:00 +28°C° 0 mm 2 mps 760 mmHg 39%
    11:00 +30°C° 0 mm 2 mps 760 mmHg 34%
    12:00 +32°C° 0 mm 2 mps 759 mmHg 29%
    13:00 +34°C° 0 mm 2 mps 759 mmHg 28%
    14:00 +34°C° 0 mm 2 mps 758 mmHg 26%
    15:00 +35°C° 0 mm 2 mps 757 mmHg 25%
    16:00 +32°C° 0 mm 2 mps 757 mmHg 29%
    17:00 +29°C° 0 mm 2 mps 758 mmHg 34%
    18:00 +27°C° 0 mm 1 mps 758 mmHg 39%
    19:00 +26°C° 0 mm 2 mps 758 mmHg 41%
    20:00 +25°C° 0 mm 2 mps 759 mmHg 43%
    21:00 +24°C° 0 mm 2 mps 760 mmHg 45%
    22:00 +23°C° 0 mm 2 mps 760 mmHg 46%
    23:00 +23°C° 0 mm 2 mps 760 mmHg 48%

    25 February, Sunday

    Time Temperature Precipitation Wind Pressure Humidity
    00:00 +21°C° 0 mm 2 mps 760 mmHg 49%
    01:00 +21°C° 0 mm 2 mps 759 mmHg 50%
    02:00 +20°C° 0 mm 2 mps 759 mmHg 52%
    03:00 +21°C° 0 mm 1 mps 759 mmHg 53%
    04:00 +20°C° 0 mm 1 mps 759 mmHg 54%
    05:00 +20°C° 0 mm 1 mps 759 mmHg 56%
    06:00 +19°C° 0 mm 2 mps 759 mmHg 57%
    07:00 +21°C° 0 mm 2 mps 760 mmHg 52%
    08:00 +24°C° 0 mm 2 mps 760 mmHg 48%
    09:00 +26°C° 0 mm 2 mps 760 mmHg 44%
    10:00 +29°C° 0 mm 2 mps 760 mmHg 39%
    11:00 +31°C° 0 mm 2 mps 759 mmHg 34%
    12:00 +33°C° 0 mm 1 mps 759 mmHg 29%
    13:00 +35°C° 0 mm 2 mps 758 mmHg 28%
    14:00 +35°C° 0 mm 2 mps 757 mmHg 26%
    15:00 +35°C° 0 mm 2 mps 756 mmHg 25%
    16:00 +32°C° 0 mm 2 mps 756 mmHg 30%
    17:00 +30°C° 0 mm 2 mps 757 mmHg 34%
    18:00 +28°C° 0 mm 1 mps 757 mmHg 39%
    19:00 +27°C° 0 mm 1 mps 757 mmHg 41%
    20:00 +26°C° 0 mm 1 mps 758 mmHg 43%
    21:00 +25°C° 0 mm 1 mps 758 mmHg 45%
    22:00 +24°C° 0 mm 1 mps 758 mmHg 46%
    23:00 +23°C° 0 mm 2 mps 758 mmHg 48%

    26 February, Monday

    Time Temperature Precipitation Wind Pressure Humidity
    00:00 +23°C° 0 mm 2 mps 758 mmHg 49%
    01:00 +21°C° 0 mm 2 mps 758 mmHg 51%
    02:00 +21°C° 0 mm 2 mps 757 mmHg 53%
    03:00 +21°C° 0 mm 1 mps 757 mmHg 54%
    04:00 +21°C° 0 mm 1 mps 757 mmHg 56%
    05:00 +20°C° 0 mm 1 mps 757 mmHg 57%
    06:00 +20°C° 0 mm 1 mps 758 mmHg 59%
    07:00 +22°C° 0 mm 1 mps 758 mmHg 54%
    08:00 +25°C° 0 mm 1 mps 758 mmHg 49%
    09:00 +27°C° 0 mm 2 mps 759 mmHg 44%
    10:00 +29°C° 0 mm 2 mps 758 mmHg 39%
    11:00 +31°C° 0 mm 1 mps 758 mmHg 34%
    12:00 +33°C° 0 mm 1 mps 757 mmHg 30%
    13:00 +34°C° 0 mm 1 mps 756 mmHg 28%
    14:00 +35°C° 0 mm 2 mps 756 mmHg 27%
    15:00 +35°C° 0 mm 2 mps 755 mmHg 26%
    16:00 +32°C° 0 mm 2 mps 755 mmHg 30%
    17:00 +30°C° 0 mm 2 mps 755 mmHg 34%
    18:00 +28°C° 0 mm 1 mps 755 mmHg 39%
    19:00 +27°C° 0 mm 2 mps 756 mmHg 41%
    20:00 +26°C° 0 mm 2 mps 756 mmHg 44%
    21:00 +25°C° 0 mm 2 mps 757 mmHg 47%
    22:00 +24°C° 0 mm 2 mps 757 mmHg 49%
    23:00 +24°C° 0 mm 2 mps 757 mmHg 50%
    Show more